Waukesha, WI

1:16 PM CDT on August 21, 2017 (GMT -0500)
Waukesha County

Weather History for KUES - March, 2012

Change the Weather History Date:

Saturday, March 10, 2012

  Actual Average Record
Temperature  
Mean Temperature 42 °F -  
Max Temperature 57 °F 40 °F 64 °F (1977)
Min Temperature 26 °F 22 °F -2 °F (2003)
Degree Days  
Heating Degree Days 24    
Moisture  
Dew Point 24 °F    
Average Humidity 54    
Maximum Humidity 80    
Minimum Humidity 31    
Precipitation  
Precipitation 0.00 in - - ()
Sea Level Pressure  
Sea Level Pressure 30.26 in    
Wind  
Wind Speed 12 mph (South)    
Max Wind Speed 23 mph    
Max Gust Speed 34 mph    
Visibility 10 miles    
Events      
Averages and records for this station are not official NWS values.
T = Trace of Precipitation, MM = Missing Value Source: NWS Daily Summary

Daily Weather History Graph

Daily Weather History Graph

Search for Another Location

Airport or City:

Trip Planner

Search our weather history database for the weather conditions in past years. The results will help you decide how hot, cold, wet, or windy it might be!

Date:

Astronomy

Mar. 10, 2012 Rise Set
Actual Time 6:12 AM CST 5:53 PM CST
Civil Twilight 5:44 AM CST 6:22 PM CST
Nautical Twilight 5:11 AM CST 6:55 PM CST
Astronomical Twilight 4:38 AM CST 7:28 PM CST
Moon 9:13 PM CST (3/10) 7:02 AM CST (3/10)
Length of Visible Light 12h 37m
Length of Day
11h 41m
Waning Gibbous, 92% of the Moon is Illuminated
Mar 10
Waning Gibbous
Mar 14
Last Quarter
Mar 22
New
Mar 30
First Quarter
Apr 6
Full

Hourly Weather History & Observations

Time (CST) Temp. Windchill Dew Point Humidity Pressure Visibility Wind Dir Wind Speed Gust Speed Precip Events Conditions
12:15 AM 28.4 °F 19.7 °F 17.6 °F 64% 30.47 in 10.0 mi SE 9.2 mph - N/A   Clear
12:35 AM 28.4 °F 20.4 °F 17.6 °F 64% 30.46 in 10.0 mi SE 8.1 mph - N/A   Clear
12:55 AM 28.4 °F 19.7 °F 19.4 °F 69% 30.46 in 10.0 mi SE 9.2 mph - N/A   Clear
1:15 AM 28.4 °F 19.7 °F 19.4 °F 69% 30.45 in 10.0 mi SSE 9.2 mph - N/A   Clear
1:35 AM 28.4 °F 20.4 °F 19.4 °F 69% 30.45 in 10.0 mi SSE 8.1 mph - N/A   Clear
1:55 AM 28.4 °F 19.7 °F 19.4 °F 69% 30.43 in 10.0 mi SSE 9.2 mph - N/A   Clear
2:15 AM 28.4 °F 19.1 °F 19.4 °F 69% 30.42 in 10.0 mi SSE 10.4 mph - N/A   Clear
2:35 AM 28.4 °F 18.5 °F 19.4 °F 69% 30.42 in 10.0 mi SSE 11.5 mph 17.3 mph N/A   Clear
2:55 AM 28.4 °F 19.7 °F 19.4 °F 69% 30.42 in 10.0 mi SSE 9.2 mph - N/A   Clear
3:15 AM 28.4 °F 20.4 °F 19.4 °F 69% 30.40 in 10.0 mi SSE 8.1 mph - N/A   Clear
3:35 AM 28.4 °F 18.0 °F 19.4 °F 69% 30.39 in 10.0 mi SSE 12.7 mph - N/A   Clear
3:55 AM 28.4 °F 19.1 °F 19.4 °F 69% 30.39 in 10.0 mi SSE 10.4 mph - N/A   Clear
4:15 AM 28.4 °F 18.0 °F 19.4 °F 69% 30.38 in 10.0 mi SSE 12.7 mph - N/A   Clear
4:35 AM 28.4 °F 18.5 °F 19.4 °F 69% 30.37 in 10.0 mi SSE 11.5 mph - N/A   Clear
6:45 AM 26.6 °F 16.2 °F 21.2 °F 80% 30.34 in 10.0 mi South 11.5 mph 21.9 mph N/A   Clear
7:45 AM 28.4 °F 17.5 °F 15.8 °F 59% 30.32 in 10.0 mi South 13.8 mph 24.2 mph N/A   Clear
8:45 AM 32.0 °F 19.8 °F 15.8 °F 51% 30.28 in 10.0 mi South 20.7 mph 32.2 mph N/A   Clear
9:45 AM 39.2 °F 30.2 °F 17.6 °F 42% 30.26 in 10.0 mi SSW 17.3 mph 32.2 mph N/A   Clear
10:45 AM 42.8 °F 34.0 °F 21.2 °F 42% 30.24 in 10.0 mi SSW 20.7 mph 34.5 mph N/A   Clear
11:45 AM 46.4 °F 38.5 °F 24.8 °F 43% 30.22 in 10.0 mi SSW 21.9 mph 34.5 mph N/A   Clear
12:45 PM 50.0 °F - 24.8 °F 37% 30.18 in 10.0 mi SSW 17.3 mph 28.8 mph N/A   Clear
1:45 PM 53.6 °F - 26.6 °F 35% 30.15 in 10.0 mi SSW 23.0 mph 34.5 mph N/A   Clear
2:45 PM 55.4 °F - 26.6 °F 33% 30.13 in 10.0 mi SW 23.0 mph 34.5 mph N/A   Clear
3:45 PM 57.2 °F - 26.6 °F 31% 30.12 in 10.0 mi SW 21.9 mph 34.5 mph N/A   Clear
4:45 PM 55.4 °F - 28.4 °F 36% 30.11 in 10.0 mi SW 18.4 mph 29.9 mph N/A   Clear
5:45 PM 53.6 °F - 28.4 °F 38% 30.12 in 10.0 mi SSW 12.7 mph - N/A   Clear
6:45 PM 51.8 °F - 28.4 °F 41% 30.12 in 10.0 mi SW 12.7 mph - N/A   Clear
7:45 PM 50.0 °F - 28.4 °F 43% 30.13 in 10.0 mi SSW 12.7 mph - N/A   Clear
8:15 PM 46.4 °F 41.1 °F 30.2 °F 53% 30.14 in 10.0 mi SSW 11.5 mph - N/A   Clear
8:35 PM 46.4 °F 41.1 °F 30.2 °F 53% 30.14 in 10.0 mi SSW 11.5 mph - N/A   Clear
8:45 PM 48.2 °F - 30.2 °F 50% 30.14 in 10.0 mi SSW 11.5 mph - N/A   Clear
8:55 PM 46.4 °F 41.9 °F 30.2 °F 53% 30.15 in 10.0 mi SSW 9.2 mph - N/A   Clear
9:15 PM 46.4 °F 40.7 °F 30.2 °F 53% 30.15 in 10.0 mi SSW 12.7 mph 17.3 mph N/A   Clear
9:35 PM 46.4 °F 40.4 °F 30.2 °F 53% 30.15 in 10.0 mi SSW 13.8 mph 18.4 mph N/A   Clear
9:55 PM 46.4 °F 40.4 °F 28.4 °F 50% 30.15 in 10.0 mi SW 13.8 mph 21.9 mph N/A   Clear
10:15 PM 46.4 °F 40.7 °F 28.4 °F 50% 30.15 in 10.0 mi SSW 12.7 mph 18.4 mph N/A   Clear
10:35 PM 46.4 °F 41.5 °F 28.4 °F 50% 30.16 in 10.0 mi SSW 10.4 mph 19.6 mph N/A   Clear
10:55 PM 46.4 °F 40.7 °F 26.6 °F 46% 30.16 in 10.0 mi SSW 12.7 mph 18.4 mph N/A   Clear
11:15 PM 46.4 °F 40.4 °F 26.6 °F 46% 30.16 in 10.0 mi SSW 13.8 mph - N/A   Clear
11:35 PM 46.4 °F 41.5 °F 26.6 °F 46% 30.17 in 10.0 mi SSW 10.4 mph - N/A   Clear
11:55 PM 44.6 °F 38.4 °F 26.6 °F 49% 30.16 in 10.0 mi SSW 12.7 mph 17.3 mph N/A   Clear